Simultaneous Nadir Overpasses (SNOs) Predictions

Prediction of SNOs between NPP and TERRA Satellite Orbit:

Table of predicted SNOs for the next 14.0 days since TLE Epoch: 3/7/2016
Index Date (NPP) Time (NPP) Lat,Lon (NPP) SZA (NPP ) Date (TERRA) Time (TERRA) Lat,Lon (TERRA) SZA (TERRA ) Distance(km) Time Diff (sec)
1 03/07/2016 09:49:40 68.59, 31.31 73.56 03/07/2016 09:50:48 68.60, 31.32 73.56 0.99 68
2 03/07/2016 10:40:21 -68.46,-161.19 106.60 03/07/2016 10:40:19 -68.44,-161.24 106.61 2.46 2
3 03/07/2016 11:31:01 68.12, 6.55 73.04 03/07/2016 11:29:49 68.16, 6.07 73.11 20.59 72
4 03/10/2016 02:06:32 68.54, 147.15 72.46 03/10/2016 02:07:19 68.57, 147.15 72.48 2.88 47
5 03/10/2016 02:57:13 -68.40, -45.34 107.71 03/10/2016 02:56:50 -68.41, -45.40 107.69 2.85 23
6 03/10/2016 03:47:40 67.36, 123.25 71.22 03/10/2016 03:46:33 67.40, 121.07 71.32 93.46 67
7 03/12/2016 18:23:25 68.54, -97.08 71.41 03/12/2016 18:23:52 68.53, -97.03 71.38 2.65 27
8 03/12/2016 19:14:06 -68.40, 70.43 108.76 03/12/2016 19:13:23 -68.38, 70.42 108.78 2.21 43
9 03/15/2016 09:49:42 -69.14,-149.41 109.03 03/15/2016 09:50:52 -68.99,-148.24 109.21 49.37 70
10 03/15/2016 10:40:16 68.50, 18.76 70.30 03/15/2016 10:40:26 68.48, 18.77 70.28 1.74 10
11 03/15/2016 11:30:57 -68.35,-173.72 109.88 03/15/2016 11:29:57 -68.34,-173.77 109.88 2.07 60
12 03/18/2016 02:06:25 -68.61, -32.92 110.64 03/18/2016 02:07:35 -68.61, -32.87 110.65 2.03 70
13 03/18/2016 02:57:08 68.45, 134.60 69.19 03/18/2016 02:57:03 68.43, 134.56 69.17 2.76 5
14 03/18/2016 03:47:48 -68.24, -57.82 111.05 03/18/2016 03:46:34 -68.29, -57.98 110.99 8.57 74
15 03/20/2016 18:23:17 -68.56, 82.92 111.75 03/20/2016 18:24:14 -68.56, 82.90 111.76 0.95 57
16 03/20/2016 19:14:00 68.41,-109.57 68.08 03/20/2016 19:13:41 68.43,-109.60 68.11 2.69 19
17 03/20/2016 20:04:31 -67.71, 58.62 112.65 03/20/2016 20:03:21 -67.80, 57.28 112.54 57.18 70




NCC Satellite Simultaneous Nadir Overpasses (SNOs) Prediction Service
